Regional Weather Roundup
Issued by NWS Charleston, SC

Current Version | Previous Version | Graphics & Text | Print | Product List | Glossary On
Versions: 1 2 3 4 5 6 7 8 9 10 11 12 13 14 15 16 17 18 19 20 21 22 23 24 25 26 27 28 29 30 31 32 33 34 35 36 37 38 39 40 41 42 43 44 45 46 47 48 49 50
000
ASUS42 KCHS 290728
RWRCHS

REGIONAL WEATHER ROUNDUP
NATIONAL WEATHER SERVICE CHARLESTON SC
300 AM EDT THU SEP 29 2016

NOTE: "FAIR" INDICATES FEW OR NO CLOUDS BELOW 12,000 FEET WITH NO
SIGNIFICANT WEATHER AND/OR OBSTRUCTIONS TO VISIBILITY.

NOT ALL STATIONS ARE QUALITY CONTROLLED. USE DATA WITH CAUTION...
ESPECIALLY DEWPOINT OBSERVATIONS.

SCZ027-030-031-034>040-042>050-290800-
...SOUTHEAST SOUTH CAROLINA...

CITY           SKY/WX    TMP DP  RH WIND       PRES   REMARKS
N CHARLESTON   MOCLDY    78  75  90 SW7       29.92F
WATERFRONT PRK   N/A     80  77  90 SW8       29.91F
MOUNT PLEASANT FAIR      79  75  89 S7        29.92F
JOHNS ISLAND   FAIR      81  75  83 S7        29.92F
PINOPOLIS        N/A     77  75  94 VRB3      29.86F
MONCKS CORNER  PTSUNNY   73  73 100 S5        29.92F
SUMMERVILLE    NOT AVBL
BEAUFORT MCAS  CLEAR     77  72  84 S5        29.93F
BEAUFORT ARPT  FAIR      77  72  83 SW6       29.92F
HILTON HEAD IS CLEAR     77  73  88 SW6       29.94F
WALTERBORO     PTSUNNY   79  79 100 S6        29.92F
ALLENDALE      FAIR      75  73  94 CALM      29.90F

...SOUTHERN MIDLANDS AND PEE DEE...

CITY           SKY/WX    TMP DP  RH WIND       PRES   REMARKS
GEORGETOWN     FAIR      75  73  94 S3        29.94F
KINGSTREE      PTSUNNY   73  72  94 SE6       29.91F
ORANGEBURG     MOCLDY    75  72  90 S12       29.91F
BARNWELL       NOT AVBL
AIKEN          FAIR      70  68  94 SW7       29.94F
MANNING        FAIR      77  72  83 S5        29.91F
COLUMBIA       CLEAR     74  71  91 CALM      29.89F
SUMTER         PTCLDY    75  72  88 S2        29.89F
FLORENCE       MOCLDY    76  73  91 S8        29.91F
MYRTLE BEACH   MOCLDY    81  70  69 S10G16    29.95F
N MYRTLE BEACH PTCLDY    80  74  81 S9        29.94F

$$

GAZ063-065-086>088-099>101-113>116-118-119-134>141-150-290800-
...SOUTHEAST GEORGIA...

CITY           SKY/WX    TMP DP  RH WIND       PRES   REMARKS
SAVANNAH ARPT  CLEAR     76  71  85 SW8       29.94F
HUNTER AAF     CLEAR     75  75 100 SW5       29.91F
FORT STEWART   CLEAR     73  70  90 CALM      29.92S
STATESBORO     CLEAR     75  73  93 CALM      29.92F
SYLVANIA       NOT AVBL
CLAXTON        FAIR      74  74 100 CALM      29.92F

...CSRA...CENTRAL AND FAR SOUTHEAST GEORGIA...

CITY           SKY/WX    TMP DP  RH WIND       PRES   REMARKS
THOMSON        MOCLDY    72  67  84 CALM      29.95F
AUGUSTA-BUSH   PTCLDY    74  69  85 SW7       29.90S
AUGUSTA-DANIEL PTCLDY    75  67  76 SW5       29.91F
SWAINSBORO     FAIR      73  72  94 CALM      29.93F
VIDALIA        CLEAR     73  73 100 SW3       29.93F
EASTMAN        FAIR      73  73 100 S3        29.96F
HAZLEHURST     FAIR      76  76 100 N5        29.93F
ALMA           MOCLDY    73  72  96 S5        29.94F
WAYCROSS       CLEAR     76  76 100 SW6       29.95F
JESUP          FAIR      73  73 100 SW3       29.94F
BAXLEY         MOCLDY    73  73 100 SW5       29.94S
BRUNSWICK      PTCLDY    75  73  94 SW6       29.96S
SAINT SIMONS   PTCLDY    76  72  87 SW9       29.95F

$$

SCZ027-028-034-036>038-045-046-048>050-GAZ119-141-290800-
...LAKE AND SUPPLEMENTAL COASTAL OBSERVATIONS...

STATION/POSITION TIME  TEMP    WIND        PRES    WAVE   SWELL
                       AIR SEA DIR/SP/G            HT/PER HT/PER/DIR
                 (UTC) (F)     (DEG/KT/KT) (MB)    (FT/S) (FT/S/D)
WINYAH BAY       0545   79     190/  4     1014.0
LAKE MURRAY      0650   76     200/  5/  8 1011.9F
ACE BASIN NERRS  0645   77        CALM     1014.0S
FORT PULASKI     0700   76 81  210/  4/  7 1014.1
SAPELO ISLAND    0600   77     220/  8     1014.0

$$

ANZ835-935-AMZ111-154-330-350-352-354-370-450-454-472-290800-
...C-MAN AND BUOY OBSERVATIONS...

STATION/POSITION TIME  TEMP    WIND        PRES    WAVE   SWELL
                       AIR SEA DIR/SP/G            HT/PER HT/PER/DIR
                 (UTC) (F)     (DEG/KT/KT) (MB)    (FT/S) (FT/S/D)
BUOY 41004       0650   81 82  210/ 12/ 14 1013.3F   3/ 4   2/100/ 8
BUOY 41008       0650   80 82  220/ 14/ 16 1013.8F   3/ 4   2/ 60/10
FOLLY BEACH CMAN 0700   81     200/ 14/ 16 1013.6F
CAPERS NEARSHORE 0608   81 81  210/ 16/ 21 1013.8F
FRIPP NEARSHORE  0608   81     230/ 16/ 21 1014.0F


STATION/POSITION TIME  TEMP    WIND        PRES    WAVE   SWELL
                       AIR SEA DIR/SP/G            HT/PER HT/PER/DIR
                 (UTC) (F)     (DEG/KT/KT) (MB)    (FT/S) (FT/S/D)
5E ST. MARYS GA  0701      82                N/A     2/11   2/ 90/11
FRYING PAN BUOY  0710   81 82  180/ 10/ 12 1014.1
BUOY 41025       0650   81 82  160/  8/ 12 1016.0R   4/ 8   3/ 90/ 8
CAPE LOOKOUT NC  0700   79     150/  5/  6 1015.1F
BUOY 41002       0650   80 83  170/ 14/ 17 1016.2F   4/ 6   2/ 60/11
BUOY 41010       NOT AVBL
ST AUGUSTINE FL  0700   72 83  210/  7/  9 1016.3F


$$




USA.gov is the U.S. government's official web portal to all federal, state and local government web resources and services.